Terug naar catalogus

CZ-3 DEB

ActiefHEO
NORAD 17425·DEBRIS·🇨🇳 China

Gelanceerd Feb 1, 1986 vanaf Xichang Satellite Launch Center

Loading…

Volgende Passages (komende 24 uur)

TLE

VersSource: Space-Track

Epoch: Sep 14, 2026, 07:22 UTC

1 17425U 86010C   26257.30712353  .00001389  00000-0  27926-2 0  9999
2 17425  31.2081   2.3334 6267671  98.4694 332.3970  3.51951186165453

Volg CZ-3 DEB in realtime met AllMySat

Download on the App Store